Location: City of Moscow
(46.7306°N, 116.9989°W)
Time: 14:09:34
(UTC+00:00)

Tiangong - Visible Passes

Search period start: 15 February 2026 00:00
Search period end: 25 February 2026 00:00
Orbit: 386 x 391 km, 41.5° (Epoch: 15 February)

Date Brightness Start Highest point End Pass type
(mag) Time Alt. Az. Time Alt. Az. Time Alt. Az.
15 Feb -0.5 03:11:50 10° WSW 03:14:03 28° SSW 03:14:03 28° SSW visible
16 Feb -0.8 02:13:36 10° WSW 02:16:26 30° S 02:18:31 15° ESE visible
16 Feb 1.0 03:50:17 10° WSW 03:50:49 13° WSW 03:50:49 13° WSW visible
17 Feb -0.8 02:51:51 10° WSW 02:54:40 29° S 02:55:15 27° SSE visible
18 Feb -0.7 01:53:28 10° WSW 01:56:19 31° S 01:59:12 10° ESE visible
18 Feb 0.4 03:30:26 10° WSW 03:31:58 17° SW 03:31:58 17° SW visible
19 Feb -0.3 02:31:48 10° WSW 02:34:26 24° SSW 02:36:24 14° SE visible
20 Feb 0.5 03:10:46 10° SW 03:12:22 13° SSW 03:13:10 12° S visible
21 Feb 0.3 02:11:43 10° WSW 02:14:00 18° SSW 02:16:16 10° SSE visible
23 Feb 0.8 01:51:52 10° SW 01:53:20 13° SSW 01:54:48 10° S visible
